sat.trackr.live / text

‹ back to catalog

STARLINK-2236

NORAD 48582 · 2021-041AF

PAYLOAD ACTIVE UNKNOWN

§ Identity

Operator
Country
US
Launch date
2021-05-15
Launch site
AFETR
Launch vehicle
Mass (kg)
RCS (m²)

Purposes: comms

External: N2YO · Heavens-Above · Gunter

§ Orbital elements

Epoch: 2026-09-20T00:00:02.999808Z

Period
91.04 min
Inclination
53.0459°
Eccentricity
0.0009855
Mean motion
15.81697782 rev/d
Perigee alt
319.0 km
Apogee alt
332.2 km
Semi-major
6,703.8 km
B*
9.6741e-4
RAAN
259.7703°
Arg perigee
57.7335°
Mean anomaly
176.3442°
Rev number
599

§ Raw data

STARLINK-22361 48582U 21041AF  26263.00003472  .00202982  00000+0  96741-3 0  99922 48582  53.0459 259.7703 0009855  57.7335 176.3442 15.81697782  5999

JSON: /api/v1/satellites/48582 · /tle

For live sub-satellite position, see the globe view (requires WebGL).

§ Visibility from observer

Set your observer location to see the next 7 days of passes ≥ 10°. The values pass through the URL so the page stays shareable.

No JS? Fill the form by hand. The geolocation button needs JavaScript.